{"data":{"norad_id":59896,"epoch":"2026-05-25T01:08:59.771328Z","epoch_age_seconds":61023,"freshness":"FRESH","line1":"1 59896U 24100M   26145.04791402  .00001348  00000+0  58497-4 0  9991","line2":"2 59896  43.0020  50.8134 0000988 275.0876  84.9863 15.27583227112878","mean_motion":15.27583227,"eccentricity":9.88e-5,"inclination_deg":43.002,"raan_deg":50.8134,"arg_perigee_deg":275.0876,"mean_anomaly_deg":84.9863,"bstar":5.8497e-5,"rev_number":11287,"period_min":94.266549576352,"perigee_km":482.36154902615,"apogee_km":483.71731748936,"semimajor_km":6861.1764332578,"source":"CELESTRAK","updated_at":"2026-05-25T13:38:19.118250Z"}}